SCP
0 0 0 0 0 0 0 0 0 0 0 0 0 0 0 0 0 0 1 1 2 3 4 5 5 5 4 3 3 4 4 5 4 3 3 2 1 1 1 1 1 1 1 1 1 1 1 1 0
0 0 0 0 0 0 0 0 0 0 0 0 0 0 0 0 0 0 1 1 2 3 4 5 5 5 4 3 3 4 4 4 4 3 3 2 1 1 1 1 1 1 1 1 1 1 1 0 0
0 0 0 0 0 0 0 0 0 0 0 0 0 0 0 0 0 1 1 2 3 4 4 5 6 5 4 3 3 3 4 4 4 3 2 2 1 1 1 1 1 1 1 1 1 1 1 1 0
0 0 1 0 0 0 0 0 0 0 0 0 0 0 1 1 1 1 2 2 3 4 4 5 5 5 4 3 3 3 3 3 3 3 2 2 1 1 1 1 1 1 1 1 1 1 1 1 1
0 1 1 1 0 0 0 0 0 0 0 0 0 1 1 2 2 2 3 3 3 4 5 5 5 5 4 3 3 3 3 3 3 3 2 2 1 1 1 1 1 1 1 1 1 1 1 1 1
0 1 1 1 0 0 0 0 0 0 0 0 0 1 2 2 2 2 3 3 4 5 6 5 5 4 4 3 3 3 3 3 3 3 2 2 1 1 1 1 1 1 1 1 1 1 1 1 1
0 0 0 0 0 0 0 0 0 0 0 0 1 2 2 2 2 2 3 4 4 5 6 6 5 4 4 4 3 3 3 3 3 3 2 2 2 1 1 1 1 1 1 1 1 1 1 1 1
0 0 0 0 0 0 0 0 0 0 0 0 1 1 2 2 2 3 3 4 4 5 6 6 5 5 4 4 4 3 3 3 3 3 2 2 2 1 1 1 1 1 1 1 1 1 1 1 1
1 0 0 0 0 0 0 0 0 0 0 0 1 1 2 2 3 3 4 4 4 5 5 6 6 5 5 4 4 4 4 3 3 3 2 2 2 1 1 1 1 1 1 1 1 1 1 1 1
0 0 0 0 0 0 0 0 0 0 0 1 1 3 3 3 3 3 4 4 4 4 5 6 6 6 5 5 4 4 3 4 4 3 3 2 2 2 1 1 1 1 1 1 1 1 1 1 1
0 0 0 0 0 0 0 0 0 0 0 1 2 3 3 3 3 3 3 4 4 4 5 6 6 6 6 5 5 4 4 3 4 4 3 2 2 2 1 1 1 1 1 1 1 1 0 1 1
0 0 0 0 0 0 0 0 0 0 0 0 1 2 2 3 3 3 3 3 4 4 5 5 6 6 6 6 5 5 4 3 3 4 3 3 2 2 1 1 1 1 0 0 0 0 0 0 0
0 0 0 0 0 0 0 0 0 0 0 0 1 1 2 3 3 3 3 4 4 4 4 5 6 6 6 6 6 5 4 3 3 4 3 3 2 1 1 1 1 1 0 0 0 0 0 0 0
0 0 0 0 0 0 1 0 0 0 0 1 1 1 2 3 3 3 3 4 4 4 4 5 5 5 6 6 6 5 4 3 2 3 3 2 2 1 1 1 1 0 0 0 0 0 0 0 0
0 0 0 0 0 1 1 1 0 0 0 1 1 1 2 2 3 3 3 4 4 4 4 4 4 5 5 6 6 5 4 2 2 2 2 2 1 1 1 1 1 0 0 0 0 0 0 0 0
0 0 0 0 0 1 1 1 0 0 0 1 1 1 2 2 3 3 4 4 4 4 4 4 4 4 5 6 6 5 3 2 2 2 2 1 1 1 1 1 0 0 1 0 0 0 0 0 0
0 0 0 0 0 1 1 1 1 0 0 0 1 1 2 2 3 3 4 4 5 5 4 4 4 4 5 5 5 4 3 2 1 1 1 1 1 1 1 1 0 0 0 0 0 0 0 0 0
0 0 0 0 0 0 1 1 1 0 0 0 1 1 1 2 2 2 3 4 4 5 4 4 4 4 5 5 5 4 2 1 1 1 1 1 1 1 1 1 0 0 0 0 0 0 0 0 0
0 0 0 0 0 0 1 1 1 0 0 0 0 1 1 2 2 2 2 3 3 4 3 4 4 3 3 4 4 3 2 1 1 1 1 1 1 1 1 1 0 0 0 0 0 0 0 0 0
0 0 0 0 0 1 1 1 1 0 0 0 0 0 1 1 2 3 3 2 3 3 3 3 2 2 2 2 3 2 1 1 1 1 1 1 1 0 1 0 0 0 0 0 0 0 0 0 0
0 0 0 0 1 1 1 2 1 1 0 0 0 0 0 1 1 2 2 2 2 2 2 2 1 1 1 1 2 2 1 1 1 1 1 1 1 0 0 0 0 0 0 0 0 0 0 0 0
0 0 0 1 1 1 1 1 1 1 1 0 0 0 0 0 0 1 2 2 2 2 2 1 1 1 1 1 1 1 1 1 1 1 1 1 1 0 0 0 0 0 0 0 0 0 0 0 0
0 0 0 1 1 1 1 1 1 1 1 0 0 0 0 0 0 0 1 1 1 2 2 2 1 1 1 1 1 1 1 1 1 1 1 1 1 0 0 0 0 0 0 0 0 0 0 0 0
0 0 0 1 1 1 0 0 0 1 0 0 0 0 0 0 0 0 1 1 1 1 1 1 1 1 1 1 0 1 1 1 1 1 1 1 1 0 0 0 0 0 0 0 0 0 0 0 0
0 0 0 0 0 0 0 0 0 0 0 0 0 0 0 0 0 0 0 1 1 1 1 1 1 1 1 1 0 0 1 1 1 1 1 1 1 0 0 0 0 0 0 0 0 0 0 0 0
0 0 0 0 0 0 0 0 0 0 0 0 0 0 0 0 0 0 0 1 1 1 1 1 1 1 1 1 1 0 1 1 1 1 1 1 0 0 0 0 0 0 0 0 0 0 0 0 0
0 0 0 0 0 0 0 0 0 0 0 0 0 0 0 0 0 0 0 1 2 2 1 1 1 1 1 1 1 1 1 1 1 0 0 0 0 0 0 0 0 0 0 0 0 0 0 0 0
0 0 0 0 0 0 0 0 0 0 0 0 0 0 0 0 0 0 0 1 2 2 1 1 1 1 1 1 1 1 1 1 0 0 0 0 0 0 0 0 0 0 0 0 0 0 0 0 0
0 0 0 0 0 0 0 0 0 0 0 0 0 0 0 0 0 0 0 1 1 1 1 1 1 1 1 1 1 1 0 0 0 0 0 0 0 0 0 0 0 0 0 0 0 0 0 0 0
0 0 0 0 0 0 0 0 0 0 0 0 0 0 0 0 0 0 0 1 1 0 0 0 0 1 1 1 1 0 0 0 0 0 0 0 0 0 0 0 0 0 0 0 0 0 0 0 0
Wind_Speed
7 4 2 4 6 3 4 5 2 1 2 1 1 3 5 4 4 2 1 2 4 5 6 8 10 11 12 12 12 12 13 13 13 13 13 13 13 13 13 13 13 13 13 14 14 15 15 16 16
2 2 5 5 5 3 6 4 4 4 2 1 2 2 3 1 1 2 2 1 4 5 5 6 9 10 11 12 12 12 13 12 12 12 12 13 13 13 13 13 12 13 13 13 14 15 15 15 15
2 3 4 4 4 7 6 3 4 2 0 1 1 2 2 1 2 1 2 1 4 5 4 5 9 10 11 11 12 12 12 12 12 12 12 12 12 12 12 12 12 12 13 13 14 14 14 15 15
3 4 4 2 7 7 4 1 1 0 2 2 2 2 1 2 2 2 2 3 5 5 3 4 8 9 10 10 11 12 12 12 12 11 11 11 11 11 11 11 12 12 12 13 13 13 14 14 14
4 4 2 3 7 5 2 2 0 1 0 1 2 1 1 3 5 4 3 3 5 4 3 4 7 8 9 10 10 10 11 11 12 11 11 11 11 11 11 11 11 12 12 12 13 13 14 14 14
3 3 3 6 7 4 1 2 1 1 0 1 2 1 0 3 7 6 3 2 3 4 4 4 6 7 7 8 9 9 10 11 11 11 11 11 11 11 11 11 11 11 12 12 12 13 13 13 13
4 3 4 4 4 3 1 1 1 0 1 1 0 2 1 4 6 4 4 3 3 4 4 4 4 5 6 7 7 9 9 9 9 10 10 10 10 10 10 10 11 11 11 11 12 12 13 13 12
3 3 2 2 3 3 1 1 1 1 1 1 2 2 1 4 5 4 4 4 4 4 4 4 3 4 4 4 6 7 8 8 9 9 9 9 9 9 9 9 9 10 10 10 11 12 12 12 12
3 3 4 5 3 2 1 1 2 2 3 2 2 2 2 2 3 5 5 4 4 4 4 4 4 3 3 3 5 5 7 7 8 7 9 7 5 5 5 7 8 9 9 10 11 12 12 11 10
3 4 6 2 2 1 1 1 0 2 3 3 4 5 4 3 4 5 4 3 3 3 3 3 4 3 3 3 3 3 3 4 4 4 5 4 4 4 5 7 8 8 9 9 11 11 10 7 4
2 4 2 1 1 1 1 2 2 2 1 2 2 2 3 3 3 3 2 2 2 1 2 2 3 3 3 2 2 2 2 3 4 4 4 4 3 3 3 3 4 5 6 5 6 6 4 4 3
1 1 1 1 2 2 1 1 2 1 1 2 1 1 2 3 2 2 2 2 2 2 2 2 2 3 3 3 2 2 2 2 2 3 4 3 2 3 2 2 3 3 2 3 4 3 4 4 4
1 1 2 3 4 2 3 1 0 2 3 3 3 3 2 2 1 2 2 2 3 3 2 2 2 3 3 3 2 2 2 2 3 3 3 3 3 3 2 2 2 3 3 3 3 4 4 4 4
1 0 2 3 3 2 2 2 1 3 2 3 4 3 2 1 2 3 4 4 3 2 2 2 2 3 3 2 2 2 2 2 3 2 3 3 3 3 3 3 3 3 2 2 3 3 3 3 3
1 1 4 3 2 1 1 3 2 3 2 2 2 2 2 2 3 2 2 3 2 2 2 2 2 2 3 3 2 2 2 2 2 2 3 3 3 3 3 3 2 2 3 3 3 3 3 3 3
2 2 2 3 2 2 2 4 3 2 1 1 1 1 2 2 2 2 3 3 3 2 2 2 2 2 2 2 2 1 2 3 2 2 3 3 3 3 3 3 2 2 3 3 3 3 3 3 3
3 0 3 3 1 1 1 3 2 2 2 1 2 1 1 2 3 3 3 3 3 2 1 2 2 2 2 2 2 2 2 2 2 2 2 3 3 3 3 3 2 3 3 3 3 2 3 3 3
2 2 3 3 2 1 1 3 4 2 1 1 2 2 2 2 3 4 3 3 2 2 2 3 3 3 2 2 2 2 3 2 2 2 2 3 3 3 3 3 3 3 3 3 3 3 3 2 3
2 2 3 4 1 0 3 4 5 3 2 3 3 2 2 2 3 4 3 3 3 3 3 3 3 3 2 2 2 1 1 2 2 2 2 3 3 3 3 3 3 3 3 3 4 3 3 2 2
1 1 2 3 2 1 2 5 4 3 2 2 2 3 3 3 4 4 3 3 3 2 2 3 2 2 2 1 1 1 1 1 1 2 2 2 3 3 3 3 2 3 3 4 4 4 2 1 1
2 3 3 3 3 1 2 5 3 3 2 4 4 4 4 3 4 4 3 4 3 3 2 2 2 2 2 2 2 2 2 2 2 2 2 2 2 2 2 2 2 2 3 4 4 4 3 2 0
4 3 3 3 1 2 0 4 4 3 3 4 5 5 4 4 4 3 3 3 3 2 2 3 3 3 3 2 3 3 2 1 1 1 1 1 2 2 2 2 2 2 2 3 3 3 2 4 2
3 3 2 2 2 1 1 2 6 2 3 4 4 4 3 3 3 3 3 3 3 2 2 2 3 3 3 3 3 3 2 1 1 2 2 2 2 2 2 2 2 2 2 2 3 3 3 3 3
2 2 1 2 2 2 3 3 6 3 4 4 4 3 3 3 4 3 3 2 3 3 2 3 3 3 3 3 3 3 2 2 2 2 1 1 1 1 1 2 2 2 1 1 2 3 3 2 2
3 3 3 4 2 4 1 2 6 4 3 3 3 4 3 3 3 3 4 3 3 3 3 3 2 3 3 3 3 2 1 1 1 1 1 1 1 1 1 1 1 1 1 1 1 2 2 3 3
1 2 3 2 3 4 2 4 5 3 3 2 2 3 3 4 3 3 3 3 2 3 2 2 2 2 2 2 2 1 1 1 1 1 1 0 0 0 0 0 1 1 1 1 1 1 2 2 2
1 0 1 2 1 2 4 5 6 3 5 4 4 4 4 4 4 4 4 3 2 2 2 1 1 2 1 1 1 1 1 1 1 1 0 0 1 0 0 0 0 1 1 1 2 1 1 2 2
2 2 3 2 0 3 5 4 4 4 5 5 4 4 4 4 4 4 4 4 2 2 2 2 1 0 0 0 1 1 1 0 0 0 0 1 1 1 0 0 0 1 1 2 2 1 1 2 2
3 3 2 1 1 2 4 6 2 3 3 3 4 4 4 4 4 4 3 3 3 3 3 2 2 1 1 1 0 1 1 1 0 0 0 0 1 1 0 0 0 1 1 1 1 1 1 1 1
2 1 2 2 2 2 3 7 2 2 2 2 4 4 3 3 3 3 3 3 4 4 3 3 3 2 2 1 0 0 0 1 0 0 1 0 1 1 0 0 0 0 1 1 2 2 2 2 2
Wind_Direction
343 360 52 57 60 57 234 239 214 245 226 222 151 136 144 147 154 182 328 97 112 144 159 159 153 149 142 137 132 127 125 122 121 120 119 118 120 119 117 114 111 109 106 104 104 103 102 101 99
342 17 54 65 108 202 250 232 214 216 206 106 53 77 90 73 23 50 20 2 118 134 145 151 150 148 142 139 136 132 130 126 124 123 121 120 120 121 121 117 113 110 108 106 105 105 104 104 102
4 49 86 94 160 201 223 222 217 250 325 89 79 51 104 16 3 0 325 129 112 119 122 145 142 146 144 141 139 137 133 129 126 125 123 121 121 120 123 121 117 111 109 108 108 108 107 105 102
65 52 64 115 219 226 223 287 223 347 17 35 93 52 35 30 353 323 345 108 111 109 104 135 135 141 141 141 141 140 137 133 129 126 124 123 122 121 119 120 117 114 112 111 110 110 108 105 103
60 86 105 221 236 244 244 303 223 134 111 26 85 93 346 8 12 24 59 98 115 110 102 117 120 131 138 140 139 138 138 136 133 129 126 125 123 121 119 115 117 118 118 116 114 113 111 107 104
67 84 148 221 236 258 283 320 28 83 119 50 72 121 217 22 18 13 26 65 104 110 105 116 113 114 125 136 139 136 136 135 135 133 129 125 123 122 120 119 116 120 121 118 116 115 113 109 106
119 130 194 212 229 257 298 350 84 49 30 327 171 125 315 3 1 6 23 55 83 88 93 101 112 108 112 121 125 131 131 130 131 130 127 123 118 119 120 119 117 118 117 118 117 115 113 108 106
122 118 189 223 215 243 315 30 44 74 239 357 58 110 292 330 351 18 41 62 77 74 69 74 77 93 99 113 114 116 124 125 125 122 116 115 115 115 114 113 112 114 116 116 117 116 113 107 104
83 107 210 219 201 226 346 51 6 31 76 38 37 43 343 23 40 44 45 43 53 56 51 57 62 69 85 103 106 107 111 115 116 118 114 108 104 102 105 105 109 110 113 114 113 114 112 104 99
85 177 217 208 188 160 56 69 27 50 35 7 354 3 33 58 67 63 53 43 42 41 39 53 54 61 73 94 92 93 98 104 100 102 107 102 100 99 101 104 105 105 106 112 110 108 107 98 89
121 201 231 352 13 127 109 47 29 110 346 298 297 337 28 51 56 60 45 35 22 48 55 43 63 63 66 77 88 84 94 95 95 93 92 101 101 97 91 97 99 95 94 94 98 92 87 93 94
110 295 336 339 9 33 93 82 45 61 273 348 347 112 85 76 57 43 24 4 7 19 48 37 66 71 61 67 90 90 98 105 105 104 99 105 108 103 106 100 99 97 95 97 92 96 94 93 93
225 300 359 14 31 56 70 49 61 313 329 25 61 73 86 86 41 16 14 13 13 15 20 36 60 80 72 77 82 91 102 116 120 117 108 106 117 117 112 106 97 95 100 106 106 106 105 101 96
173 330 339 348 11 18 74 348 12 308 355 42 64 67 60 58 38 22 11 4 356 2 354 20 65 83 86 83 85 104 108 120 124 123 121 112 111 122 124 116 107 100 103 109 113 117 115 108 107
113 45 348 353 358 335 63 338 286 302 28 46 50 44 29 19 25 17 355 344 330 342 354 13 61 79 90 86 85 98 106 109 126 128 123 112 109 120 125 122 114 107 105 105 102 99 99 99 102
59 57 315 321 5 344 108 256 307 346 67 37 19 21 19 11 20 360 353 346 342 354 10 24 51 70 76 79 86 97 107 105 109 125 127 118 109 111 120 124 120 113 111 109 109 105 100 96 97
47 263 262 304 351 24 135 249 306 15 66 21 345 354 13 3 6 354 347 340 345 358 23 38 46 57 68 75 73 77 94 101 103 107 124 124 118 113 117 123 122 123 116 111 117 103 111 116 111
236 236 250 270 303 67 186 261 298 340 37 350 334 350 1 350 331 341 339 345 1 14 46 51 49 41 55 84 76 68 67 70 83 98 102 114 119 113 106 113 118 122 118 110 110 112 99 112 121
189 192 245 265 275 222 236 269 291 310 351 345 338 340 338 323 335 347 348 7 27 28 48 50 46 38 55 81 89 100 78 60 64 75 81 99 112 116 113 115 130 132 133 135 127 115 115 107 110
232 215 263 296 332 261 262 278 293 318 322 322 327 330 328 338 349 350 5 22 24 25 45 46 43 44 39 57 76 105 107 79 61 58 67 78 91 107 116 117 137 137 132 129 126 121 117 115 109
288 227 244 268 324 360 315 293 292 322 356 1 6 359 354 351 337 333 5 13 12 17 27 40 32 35 37 45 76 70 71 68 60 54 46 48 88 95 112 120 130 141 147 154 153 144 133 145 151
277 270 265 266 302 294 320 286 284 295 329 344 344 349 351 345 338 338 6 4 356 360 16 36 34 33 36 54 91 96 92 90 66 89 61 52 81 100 103 115 113 135 145 155 165 152 149 148 161
262 301 277 248 186 289 319 254 288 337 309 315 319 329 339 337 336 340 353 347 346 3 27 42 45 38 35 41 68 85 66 50 54 66 79 71 68 91 102 109 113 122 146 158 160 154 155 161 164
313 357 22 49 85 271 244 200 281 271 268 289 302 318 329 336 338 348 352 358 4 15 24 48 57 45 45 52 58 66 62 50 67 57 66 58 50 57 79 117 125 130 126 147 171 164 161 166 158
28 58 22 1 353 261 223 206 259 266 265 260 281 298 316 330 339 351 350 352 1 15 25 37 56 45 44 49 62 70 57 87 111 89 85 42 37 27 10 70 137 133 141 158 153 152 158 169 168
312 130 155 218 254 288 306 243 265 298 324 326 317 322 336 338 341 347 339 341 0 7 22 31 52 48 48 46 35 66 63 57 40 39 63 253 259 303 262 305 171 150 146 145 137 136 165 159 169
49 83 161 141 297 292 281 292 303 347 348 347 340 345 337 333 339 340 341 344 360 6 2 22 38 34 41 33 21 41 67 47 30 8 37 295 298 291 127 157 174 164 149 145 138 138 166 162 173
71 128 84 103 105 286 296 280 276 312 316 317 318 318 317 323 327 333 341 342 349 2 354 2 9 346 1 70 30 360 42 43 107 90 22 351 324 317 174 86 119 145 147 153 143 149 158 174 191
23 44 71 117 149 182 282 277 247 246 279 290 295 303 313 320 322 326 337 345 359 14 11 355 346 355 6 28 39 14 19 12 59 119 261 296 307 305 348 325 179 153 145 158 152 161 174 187 196
113 134 142 158 248 200 232 274 317 281 293 300 303 311 316 320 324 330 344 356 1 1 2 359 355 353 343 339 345 327 6 44 38 225 248 267 279 285 272 256 252 180 188 183 176 186 194 198 207